Temperature
23 21 20 19 20 20 20 20 20 20 20 20 20 20 20 20 20 19 19 19 19 19 19 19 18 18 18 18 18 18 19 19 19 18 18 18 18 18 17 17 17 17 17
24 21 20 20 20 20 20 21 21 21 21 21 21 20 20 20 20 20 20 19 19 19 19 19 19 19 19 19 19 19 19 19 19 18 18 18 18 18 18 18 18 17 17
23 22 21 20 20 20 21 21 21 21 21 21 21 20 20 20 20 20 20 20 19 19 19 19 20 20 19 19 19 19 19 19 19 19 18 18 17 17 18 18 18 17 17
23 22 21 21 21 21 21 21 21 21 21 21 21 21 21 21 20 20 20 20 20 20 20 20 20 20 20 20 20 19 19 19 19 19 18 18 18 18 18 18 18 18 18
23 22 22 21 21 21 21 21 21 21 21 21 21 21 21 20 20 20 20 20 20 20 20 20 20 20 20 20 19 19 19 18 18 19 18 18 18 18 18 18 18 18 18
23 22 22 21 21 21 21 21 21 21 21 21 21 21 20 20 20 20 20 20 20 20 20 20 20 19 19 19 19 19 19 18 18 18 18 18 18 18 18 18 18 18 18
22 22 22 21 21 21 21 21 21 21 21 21 20 20 20 20 20 20 20 20 20 20 20 20 20 20 19 19 19 19 19 19 18 18 18 18 18 18 18 18 18 18 18
22 22 21 21 21 21 21 21 20 21 21 20 20 20 20 20 20 20 20 20 20 20 20 20 20 20 20 19 19 19 19 19 19 18 18 18 18 18 18 18 18 18 18
21 21 21 20 20 20 20 20 20 20 20 20 20 20 20 20 20 19 20 19 19 19 19 19 19 19 19 19 19 19 19 19 19 18 18 18 18 17 17 18 17 18 18
20 20 20 20 19 19 19 19 19 19 19 19 19 20 20 19 19 19 19 19 19 19 19 19 19 19 19 19 18 18 18 18 18 18 18 18 18 18 18 17 17 17 17
19 19 19 19 18 19 19 19 19 19 19 19 19 19 19 19 19 19 19 19 19 19 19 19 18 18 18 18 18 18 18 18 18 18 18 18 18 18 18 17 17 17 17
18 18 18 18 18 18 18 18 18 18 18 18 18 18 18 18 19 19 19 19 18 18 18 18 18 18 18 18 18 18 18 18 18 18 18 18 17 17 17 17 17 17 17
18 18 18 18 19 19 19 19 19 19 18 18 18 18 18 18 18 18 18 18 18 18 18 18 18 17 17 17 17 17 18 18 18 18 18 18 17 17 17 17 17 17 17
19 19 20 20 20 20 20 20 20 20 19 19 19 18 18 18 18 18 18 18 18 18 18 17 17 17 17 17 17 17 17 18 18 18 18 18 18 17 17 17 17 17 17
20 21 20 21 21 20 20 20 20 20 19 19 19 18 18 17 17 17 17 17 17 17 17 17 17 17 17 17 17 17 17 17 18 18 18 18 18 17 17 17 17 17 17
21 21 21 20 20 20 19 19 19 19 19 19 18 18 17 17 17 17 17 17 17 17 17 17 17 17 17 17 17 17 17 17 17 18 18 18 18 18 17 17 17 17 17
21 20 20 20 19 19 19 19 18 19 18 18 18 18 17 17 17 17 17 17 17 17 17 17 17 17 17 17 17 17 17 17 17 17 17 18 18 18 17 17 17 17 17
19 19 19 19 18 18 18 18 18 19 19 18 18 18 18 17 17 17 17 17 17 17 17 17 16 16 16 16 16 16 16 16 17 17 17 17 17 17 17 17 17 18 18
18 19 19 18 17 17 18 18 18 18 18 18 18 18 18 17 17 17 17 17 17 16 16 16 16 16 16 16 16 16 16 16 16 16 16 17 17 17 17 17 17 17 18
18 18 18 18 17 17 18 18 18 18 18 18 18 18 17 17 17 17 17 16 16 16 16 15 15 15 15 15 15 15 15 16 16 16 16 16 17 17 17 17 17 17 17
18 18 17 17 17 17 17 18 18 18 18 18 18 18 17 17 17 17 17 16 16 15 15 15 15 15 15 15 15 15 15 16 16 16 16 16 16 16 16 17 17 17 17
17 17 17 16 17 17 17 17 17 17 17 18 18 18 18 17 17 17 17 17 16 15 15 15 15 15 15 15 15 15 15 15 16 16 15 15 16 16 16 16 17 17 17
16 16 16 16 16 16 17 17 17 17 17 18 18 18 18 17 17 17 17 17 16 16 15 15 15 15 15 15 15 14 14 15 15 15 15 15 16 16 16 16 17 17 17
17 17 17 17 17 17 17 17 16 16 17 17 17 17 17 17 17 17 17 17 16 16 16 16 15 15 15 15 14 14 14 14 14 15 15 15 15 16 16 16 17 17 17
16 17 17 17 16 16 16 16 16 15 15 15 15 16 16 17 17 17 17 17 16 16 16 16 16 16 15 15 15 14 14 14 14 14 14 15 15 16 16 16 16 16 17
16 16 16 16 16 16 15 15 15 15 15 15 15 15 15 15 16 16 16 17 16 16 16 16 16 16 16 15 15 15 14 14 14 13 13 14 15 16 16 16 16 16 16
Wind_Speed
9 11 20 20 20 20 19 18 18 18 18 18 18 18 18 18 17 16 15 13 12 11 10 9 9 9 9 10 10 11 12 13 13 14 14 14 15 15 14 14 14 13 15
14 17 21 21 20 20 20 19 18 19 18 18 18 18 18 17 17 16 15 13 12 11 10 10 10 9 9 9 10 11 11 12 13 13 14 14 14 14 14 14 13 12 15
15 17 21 22 21 20 20 19 19 19 19 18 18 18 17 17 16 16 15 14 13 12 11 11 11 11 10 10 10 10 11 12 12 13 13 11 12 13 14 14 14 14 14
15 17 20 23 22 21 20 19 19 19 19 18 18 17 17 16 16 16 16 15 13 12 12 11 10 11 11 10 10 10 10 11 11 12 9 9 8 11 13 15 15 14 14
14 17 21 25 23 21 20 19 18 18 17 17 17 16 16 15 15 15 14 14 13 12 10 10 10 9 9 9 9 9 8 9 10 9 7 7 4 10 14 15 16 15 15
14 15 20 24 23 21 19 18 17 16 15 14 14 13 13 12 12 12 11 11 11 10 9 8 8 8 8 8 8 8 8 9 9 6 7 7 5 9 13 15 16 15 15
13 12 16 23 22 20 18 17 16 14 13 12 11 10 10 9 9 9 9 9 8 8 8 8 9 9 9 9 9 9 9 10 8 5 5 6 8 10 13 14 15 16 15
11 9 12 19 19 18 16 15 14 13 12 11 10 10 9 8 8 9 9 9 9 9 10 10 10 10 10 10 11 11 10 10 9 7 7 7 8 12 15 16 16 16 17
7 6 5 11 14 16 15 14 13 13 13 12 12 11 11 11 11 11 12 12 11 11 12 12 12 12 12 12 12 12 11 12 10 7 8 8 9 12 16 18 18 17 18
6 5 4 5 7 9 11 14 14 14 14 14 14 14 13 13 13 13 13 13 14 14 14 14 15 15 15 14 14 14 13 12 11 10 8 9 10 11 15 19 20 19 19
5 4 4 4 3 4 6 10 13 14 15 16 15 16 15 13 13 13 14 15 16 16 16 16 17 17 16 15 15 15 14 11 11 11 10 11 13 13 14 19 21 21 21
6 4 5 4 3 1 4 5 7 9 11 13 13 13 13 11 12 12 12 16 17 18 18 18 19 18 17 14 14 16 12 12 12 12 13 15 15 16 16 17 21 23 23
9 6 4 2 0 2 3 4 5 6 6 7 9 10 9 8 9 11 10 12 14 16 15 16 17 15 14 13 14 14 13 13 12 13 15 18 18 18 18 18 19 22 25
11 7 4 5 5 6 7 6 6 5 5 6 8 10 8 5 6 8 8 11 11 12 12 12 10 12 14 15 15 13 13 12 13 13 15 19 19 19 19 19 17 18 22
10 7 7 10 10 9 8 6 5 5 5 7 10 11 12 7 8 7 7 9 10 11 9 7 7 8 7 9 11 11 11 13 15 15 14 17 18 18 18 18 17 18 21
10 11 11 10 9 7 6 5 5 4 5 7 9 12 13 11 7 8 7 6 6 8 9 7 6 5 5 5 7 7 8 9 11 12 12 13 15 15 16 16 18 19 20
4 5 5 5 5 6 6 5 4 4 4 4 7 10 11 11 9 7 7 6 6 7 6 4 3 3 3 4 5 5 5 6 7 9 10 10 11 13 16 17 18 18 18
4 3 4 3 2 2 2 3 2 1 1 3 6 8 10 12 11 7 6 5 4 4 3 3 3 3 3 3 3 3 4 4 7 8 8 9 9 10 12 16 18 18 18
5 5 4 4 3 2 2 1 1 1 2 4 5 6 9 11 11 7 5 4 4 3 3 3 2 2 3 4 4 4 4 5 6 6 7 9 9 10 11 13 16 17 17
7 7 6 5 5 5 4 3 4 4 3 4 4 6 9 9 10 7 5 5 5 3 3 3 3 2 3 3 3 4 4 6 6 7 8 7 8 9 10 12 12 13 16
11 10 9 8 8 6 5 4 4 3 5 5 5 6 8 8 9 7 6 6 5 5 5 5 3 3 2 1 1 2 3 4 6 6 6 5 6 6 7 9 9 10 11
9 9 8 8 8 7 5 3 3 4 4 5 5 4 5 7 8 7 8 7 7 5 5 5 4 3 2 2 2 1 2 3 2 2 2 2 3 2 3 5 7 8 10
7 7 6 6 6 6 6 4 4 3 4 4 5 5 4 5 6 6 8 8 8 8 7 7 6 6 4 3 2 3 3 3 2 2 1 2 2 2 3 4 6 7 9
5 5 6 6 5 6 6 4 4 4 4 4 5 6 8 5 4 4 5 7 8 8 8 8 7 5 5 4 3 3 3 2 2 2 2 2 3 4 5 5 6 6 7
6 6 5 5 5 4 4 3 2 2 2 3 4 5 7 7 6 5 4 4 6 7 9 9 9 8 6 5 4 3 2 2 2 2 3 3 4 4 6 7 6 5 6
7 7 6 5 5 4 3 2 2 2 2 2 3 4 4 4 4 7 7 5 4 5 8 9 10 11 9 7 5 5 4 3 3 3 4 3 4 4 6 6 5 4 4
Wind_Direction
165 160 170 159 152 148 149 151 149 145 143 141 139 138 140 144 148 151 153 155 154 153 149 146 144 140 135 133 134 134 133 132 135 137 139 139 134 129 125 122 121 123 126
152 157 167 161 156 152 153 155 154 151 149 147 145 145 147 150 153 155 156 157 158 159 159 158 156 151 146 145 145 144 143 142 143 145 146 145 142 137 133 130 128 131 131
146 156 165 163 161 157 156 159 159 157 154 152 150 151 152 155 159 161 162 163 163 164 161 158 162 161 159 160 160 157 156 155 155 154 148 149 150 148 144 143 141 137 136
150 157 165 167 165 163 161 163 164 162 158 156 155 156 159 161 163 165 167 170 169 165 165 165 167 169 168 170 171 171 170 168 164 154 141 150 161 163 159 155 153 148 143
153 160 168 170 169 168 167 168 169 167 164 161 160 162 165 165 165 166 169 174 175 173 174 175 177 178 179 181 182 182 183 180 175 157 159 169 181 170 165 163 163 160 154
156 160 170 172 173 172 172 172 172 170 167 165 166 168 169 169 171 172 174 178 181 185 189 192 194 193 194 195 194 193 195 198 193 165 177 187 193 184 174 173 172 169 165
153 156 172 173 175 176 177 176 176 172 170 171 174 176 176 176 178 182 187 192 196 199 203 206 207 204 203 206 208 208 207 208 200 192 197 199 207 209 194 187 183 178 176
147 144 167 173 177 179 181 182 181 178 175 178 182 186 188 190 192 196 202 207 211 213 215 217 221 220 217 216 216 218 220 223 219 210 218 219 223 219 209 201 195 189 183
121 121 137 166 178 184 187 188 190 190 188 189 192 195 200 205 209 213 214 218 222 226 228 230 233 235 233 232 230 229 229 233 234 218 223 223 232 225 215 208 204 200 196
106 109 93 134 163 179 191 198 200 203 202 202 203 203 207 215 220 224 226 229 232 235 238 240 242 244 244 244 241 239 239 242 244 237 230 227 230 230 225 216 209 207 207
111 91 66 74 101 158 194 209 214 218 217 215 214 213 213 217 225 232 235 237 240 243 245 247 249 251 252 252 251 247 246 243 245 248 241 237 236 238 236 228 216 210 208
113 92 56 51 47 86 216 224 231 232 230 223 219 219 216 213 222 234 243 247 247 248 249 252 253 255 257 255 253 251 246 243 244 251 250 246 242 241 244 242 229 218 211
106 101 80 75 137 219 224 225 228 229 232 224 215 215 214 215 224 236 242 251 255 257 254 251 253 249 246 244 244 242 239 239 243 249 253 254 249 245 246 247 242 231 221
114 121 166 201 212 220 220 216 214 212 215 221 222 216 211 216 223 231 237 240 241 246 249 248 246 245 248 252 248 243 238 237 240 245 252 258 260 259 253 249 246 240 232
130 157 204 212 216 220 221 219 217 213 213 222 226 223 218 222 233 232 234 236 236 237 240 243 246 236 231 241 246 244 239 235 237 238 247 256 263 268 264 257 251 250 244
157 186 209 217 218 225 228 223 227 213 213 225 235 234 230 230 233 237 235 233 238 237 238 235 234 216 208 215 233 237 237 236 236 240 247 256 262 267 269 265 261 258 249
193 214 233 238 228 220 219 218 222 203 195 226 245 245 237 233 234 228 229 229 233 230 224 215 207 181 188 206 231 238 237 236 239 246 251 255 261 266 267 267 264 262 255
344 333 310 298 289 253 230 216 234 218 241 256 258 251 239 232 226 219 218 226 223 207 191 184 173 172 194 206 227 242 242 246 248 250 253 254 254 258 262 262 261 258 256
354 347 333 342 348 320 312 313 323 7 306 272 262 251 241 230 215 201 204 212 197 184 184 182 183 180 194 209 226 238 242 243 249 252 253 256 254 253 254 258 260 258 256
11 7 356 353 353 344 343 346 353 342 300 275 262 248 238 224 206 192 194 194 180 177 189 191 195 196 204 209 231 250 258 259 261 258 259 263 263 261 260 259 258 256 252
17 11 5 1 354 353 349 346 340 318 306 298 273 248 235 220 204 191 191 188 182 190 198 188 178 192 207 171 175 287 290 271 263 259 258 261 269 276 274 268 260 251 248
11 8 8 8 1 355 342 313 287 287 290 286 291 289 258 232 212 201 196 193 188 188 188 186 176 177 197 175 172 196 295 319 296 261 256 257 271 293 299 294 278 258 248
358 356 355 356 352 346 342 334 333 331 322 336 339 334 321 285 251 222 207 197 190 186 191 193 185 178 189 202 200 178 192 236 294 311 281 275 282 296 301 299 295 276 256
323 326 329 332 337 344 356 14 23 10 345 337 331 329 335 333 302 268 238 214 199 192 191 192 191 184 168 188 211 220 215 192 201 305 316 311 302 292 293 290 292 286 266
292 290 290 299 313 327 353 18 39 30 304 299 319 340 352 354 357 351 316 257 224 207 200 189 185 190 184 179 185 186 203 213 205 213 278 311 313 287 278 280 282 280 275
280 271 264 263 268 268 269 252 210 222 255 293 320 337 342 342 352 3 357 338 285 244 218 203 192 190 192 187 187 184 179 181 190 196 236 280 298 290 286 281 277 287 294
Height
1498 1503 1508 1512 1516 1519 1521 1523 1526 1529 1531 1534 1535 1537 1538 1540 1542 1544 1545 1546 1548 1549 1550 1551 1552 1553 1554 1554 1554 1554 1554 1554 1554 1555 1555 1555 1555 1556 1557 1557 1558 1558 1559
1497 1503 1508 1512 1516 1519 1521 1523 1526 1529 1531 1533 1535 1537 1538 1540 1542 1544 1545 1547 1548 1550 1551 1551 1552 1554 1555 1555 1555 1555 1555 1555 1555 1556 1556 1557 1557 1558 1558 1559 1560 1560 1561
1499 1503 1507 1512 1516 1519 1521 1523 1526 1528 1531 1533 1535 1537 1539 1540 1542 1544 1546 1547 1549 1550 1551 1552 1553 1554 1555 1556 1556 1556 1556 1556 1556 1557 1558 1558 1559 1559 1560 1561 1561 1562 1563
1500 1503 1507 1511 1515 1518 1521 1523 1526 1528 1531 1533 1535 1537 1538 1540 1542 1544 1546 1548 1549 1551 1552 1553 1553 1554 1555 1556 1556 1557 1557 1558 1558 1558 1559 1560 1560 1561 1561 1562 1563 1564 1564
1500 1503 1507 1511 1515 1518 1521 1523 1526 1528 1531 1533 1535 1537 1538 1540 1542 1543 1545 1548 1549 1551 1552 1552 1553 1554 1555 1556 1556 1557 1558 1559 1559 1559 1559 1560 1561 1562 1562 1563 1564 1564 1565
1499 1504 1508 1511 1515 1519 1522 1524 1527 1529 1532 1534 1536 1538 1539 1541 1542 1544 1546 1547 1549 1550 1551 1552 1552 1553 1554 1555 1556 1557 1558 1559 1559 1559 1560 1560 1561 1562 1563 1563 1564 1565 1566
1501 1505 1509 1513 1517 1521 1524 1526 1528 1530 1533 1535 1537 1539 1540 1541 1543 1544 1546 1547 1549 1550 1551 1552 1553 1553 1554 1555 1556 1557 1557 1558 1559 1560 1560 1560 1561 1562 1563 1563 1564 1565 1566
1504 1508 1512 1516 1519 1523 1526 1528 1530 1532 1533 1535 1537 1539 1541 1542 1543 1545 1546 1548 1549 1550 1551 1552 1552 1553 1554 1554 1555 1556 1557 1557 1558 1558 1559 1560 1560 1561 1562 1563 1564 1565 1566
1509 1512 1515 1518 1521 1524 1526 1528 1530 1532 1534 1535 1537 1539 1540 1542 1543 1545 1546 1547 1548 1549 1550 1550 1551 1552 1552 1553 1554 1555 1555 1556 1556 1557 1557 1558 1558 1559 1560 1561 1562 1564 1565
1512 1515 1518 1520 1522 1525 1527 1528 1530 1532 1533 1535 1536 1538 1539 1541 1542 1543 1545 1546 1547 1547 1548 1548 1549 1550 1550 1551 1552 1553 1553 1554 1554 1555 1555 1555 1556 1556 1557 1559 1560 1561 1563
1514 1518 1521 1523 1524 1526 1527 1528 1529 1531 1532 1534 1535 1536 1537 1538 1540 1541 1542 1543 1544 1545 1545 1546 1547 1547 1548 1548 1549 1550 1551 1551 1551 1552 1552 1552 1553 1553 1554 1556 1557 1558 1560
1516 1520 1522 1524 1525 1526 1526 1527 1528 1529 1531 1532 1533 1534 1535 1536 1537 1538 1539 1540 1541 1541 1542 1543 1544 1545 1545 1545 1546 1546 1547 1548 1548 1549 1549 1550 1550 1550 1551 1553 1554 1555 1557
1517 1521 1524 1525 1526 1525 1524 1524 1524 1525 1527 1529 1530 1531 1533 1533 1534 1535 1536 1536 1537 1538 1539 1539 1541 1541 1541 1541 1542 1543 1543 1544 1544 1545 1545 1547 1547 1547 1548 1549 1551 1552 1553
1517 1522 1524 1524 1523 1521 1519 1519 1519 1520 1521 1524 1526 1528 1529 1530 1530 1531 1532 1533 1533 1534 1535 1536 1536 1537 1537 1537 1538 1538 1539 1539 1539 1540 1541 1542 1543 1544 1544 1545 1546 1547 1548
1515 1518 1519 1517 1516 1514 1513 1512 1513 1514 1516 1519 1522 1523 1524 1525 1526 1527 1528 1528 1529 1529 1530 1531 1532 1532 1532 1532 1532 1533 1534 1534 1535 1536 1537 1538 1539 1539 1540 1541 1542 1542 1544
1509 1510 1512 1510 1509 1509 1509 1509 1510 1510 1511 1514 1517 1518 1520 1521 1522 1523 1523 1524 1524 1524 1525 1526 1527 1527 1527 1527 1528 1529 1529 1530 1530 1531 1532 1532 1533 1534 1535 1536 1537 1538 1539
1506 1507 1508 1508 1506 1506 1506 1506 1507 1506 1507 1511 1513 1514 1516 1517 1518 1519 1519 1519 1519 1519 1519 1520 1521 1521 1522 1522 1523 1524 1524 1525 1525 1525 1526 1527 1528 1528 1529 1530 1531 1532 1534
1505 1506 1506 1505 1504 1504 1503 1503 1503 1502 1503 1506 1509 1510 1512 1513 1514 1515 1515 1515 1515 1515 1515 1515 1515 1516 1516 1517 1518 1519 1519 1520 1520 1520 1521 1521 1522 1523 1524 1525 1525 1526 1528
1504 1505 1504 1504 1503 1502 1502 1501 1500 1499 1501 1504 1505 1507 1508 1510 1510 1511 1511 1511 1511 1511 1511 1511 1512 1512 1513 1513 1514 1514 1515 1515 1516 1516 1517 1517 1518 1518 1519 1520 1520 1521 1522
1505 1505 1504 1504 1503 1502 1501 1501 1500 1500 1501 1502 1504 1505 1506 1507 1507 1507 1507 1507 1508 1508 1508 1508 1509 1510 1510 1510 1510 1510 1511 1511 1512 1512 1512 1513 1513 1514 1514 1515 1515 1516 1517
1507 1506 1506 1505 1504 1502 1501 1501 1500 1500 1500 1501 1503 1503 1504 1504 1504 1504 1504 1504 1505 1505 1505 1506 1506 1506 1507 1507 1507 1507 1506 1506 1506 1506 1507 1508 1509 1509 1510 1510 1511 1512 1512
1510 1509 1508 1507 1505 1503 1502 1501 1500 1499 1499 1499 1500 1500 1501 1501 1502 1501 1501 1501 1502 1502 1502 1503 1503 1503 1503 1503 1503 1503 1502 1502 1501 1502 1502 1504 1505 1505 1506 1507 1507 1508 1508
1513 1511 1510 1508 1507 1505 1503 1501 1500 1498 1497 1496 1496 1496 1497 1498 1498 1499 1498 1498 1498 1499 1499 1499 1500 1499 1499 1499 1500 1500 1499 1498 1499 1499 1499 1501 1502 1503 1503 1504 1504 1504 1504
1515 1514 1512 1509 1507 1504 1502 1499 1498 1496 1494 1493 1492 1491 1491 1492 1493 1493 1494 1494 1495 1495 1495 1495 1496 1496 1495 1495 1496 1496 1497 1496 1497 1496 1497 1498 1499 1499 1500 1500 1500 1500 1500
1517 1514 1512 1509 1507 1504 1500 1498 1496 1494 1492 1491 1489 1488 1487 1486 1486 1487 1488 1489 1489 1490 1491 1491 1491 1492 1492 1492 1492 1492 1493 1493 1494 1493 1493 1495 1496 1496 1495 1495 1495 1496 1496
1517 1514 1511 1508 1505 1502 1499 1496 1494 1492 1490 1488 1486 1484 1482 1481 1480 1480 1481 1481 1482 1484 1486 1487 1487 1488 1488 1488 1488 1488 1489 1490 1490 1491 1491 1490 1490 1491 1491 1491 1492 1492 1492